EN

Hourly Weather Bolshie Smenki

Today, 21 October, Wednesday

Time Temperature Precipitation Wind Pressure Humidity
00:00 -3°C° 0 mm 4 mps 748 mmHg 86%
01:00 -3°C° 0 mm 4 mps 749 mmHg 89%
02:00 -3°C° 0 mm 4 mps 749 mmHg 91%
03:00 -3°C° 0 mm 4 mps 749 mmHg 91%
04:00 -3°C° 0 mm 4 mps 749 mmHg 91%
05:00 -3°C° 0 mm 4 mps 749 mmHg 90%
06:00 -3°C° 0 mm 4 mps 750 mmHg 88%
07:00 -2°C° 0 mm 4 mps 750 mmHg 86%
08:00 -1°C° 0 mm 3 mps 750 mmHg 84%
09:00 0°C° 0 mm 3 mps 750 mmHg 80%
10:00 0°C° 0 mm 3 mps 750 mmHg 76%
11:00 +1°C° 0 mm 3 mps 750 mmHg 72%
12:00 +2°C° 0 mm 2 mps 750 mmHg 72%
13:00 +2°C° 0 mm 2 mps 750 mmHg 71%
14:00 +3°C° 0 mm 2 mps 750 mmHg 70%
15:00 +3°C° 0 mm 1 mps 750 mmHg 75%
16:00 +2°C° 0 mm 1 mps 749 mmHg 79%
17:00 +2°C° 0 mm 1 mps 749 mmHg 84%
18:00 +1°C° 0 mm 1 mps 749 mmHg 87%
19:00 +1°C° 0 mm 1 mps 749 mmHg 90%
20:00 +1°C° 0 mm 1 mps 749 mmHg 93%
21:00 +1°C° 0 mm 1 mps 749 mmHg 94%
22:00 +1°C° 0 mm 1 mps 749 mmHg 95%
23:00 +1°C° 0 mm 1 mps 748 mmHg 96%

Tomorrow, 22 October, Thursday

Time Temperature Precipitation Wind Pressure Humidity
00:00 +1°C° 0 mm 1 mps 748 mmHg 96%
01:00 +2°C° 0 mm 1 mps 748 mmHg 96%
02:00 +2°C° 0 mm 1 mps 748 mmHg 97%
03:00 +1°C° 0 mm 2 mps 748 mmHg 97%
04:00 +1°C° 0 mm 2 mps 748 mmHg 97%
05:00 +1°C° 0 mm 3 mps 748 mmHg 96%
06:00 +1°C° 0 mm 3 mps 747 mmHg 96%
07:00 +1°C° 0 mm 3 mps 747 mmHg 96%
08:00 +2°C° 0 mm 3 mps 747 mmHg 96%
09:00 +2°C° 0 mm 3 mps 747 mmHg 96%
10:00 +2°C° 0 mm 3 mps 746 mmHg 95%
11:00 +2°C° 0 mm 3 mps 746 mmHg 95%
12:00 +3°C° 0 mm 4 mps 746 mmHg 94%
13:00 +3°C° 0 mm 4 mps 745 mmHg 94%
14:00 +3°C° 0 mm 4 mps 744 mmHg 94%
15:00 +3°C° 0.5 mm 4 mps 744 mmHg 95%
16:00 +2°C° 0.5 mm 5 mps 743 mmHg 95%
17:00 +3°C° 0.5 mm 5 mps 742 mmHg 96%
18:00 +3°C° 1.3 mm 5 mps 741 mmHg 96%
19:00 +3°C° 1.3 mm 5 mps 740 mmHg 96%
20:00 +3°C° 1.3 mm 6 mps 740 mmHg 95%
21:00 +3°C° 0.7 mm 5 mps 739 mmHg 96%
22:00 +5°C° 0.7 mm 5 mps 738 mmHg 96%
23:00 +5°C° 0.7 mm 5 mps 737 mmHg 97%

Day after tomorrow, 23 October, Friday

Time Temperature Precipitation Wind Pressure Humidity
00:00 +5°C° 1.2 mm 4 mps 737 mmHg 97%
01:00 +5°C° 1.2 mm 4 mps 736 mmHg 97%
02:00 +6°C° 1.2 mm 4 mps 736 mmHg 97%
03:00 +7°C° 0.8 mm 5 mps 736 mmHg 96%
04:00 +8°C° 0.8 mm 5 mps 736 mmHg 94%
05:00 +9°C° 0.8 mm 6 mps 736 mmHg 92%
06:00 +9°C° 0.1 mm 6 mps 736 mmHg 91%
07:00 +9°C° 0.1 mm 5 mps 736 mmHg 89%
08:00 +9°C° 0.1 mm 5 mps 736 mmHg 87%
09:00 +9°C° 0.2 mm 5 mps 737 mmHg 87%
10:00 +9°C° 0.2 mm 5 mps 737 mmHg 87%
11:00 +10°C° 0.2 mm 5 mps 737 mmHg 87%
12:00 +10°C° 0 mm 5 mps 737 mmHg 85%
13:00 +10°C° 0 mm 5 mps 737 mmHg 83%
14:00 +10°C° 0 mm 5 mps 737 mmHg 80%
15:00 +9°C° 0.1 mm 5 mps 737 mmHg 83%
16:00 +9°C° 0.1 mm 5 mps 736 mmHg 86%
17:00 +10°C° 0.1 mm 4 mps 736 mmHg 89%
18:00 +10°C° 0.9 mm 4 mps 736 mmHg 91%
19:00 +10°C° 0.9 mm 4 mps 735 mmHg 92%
20:00 +10°C° 0.9 mm 4 mps 735 mmHg 93%
21:00 +10°C° 0.7 mm 4 mps 735 mmHg 92%
22:00 +8°C° 0.7 mm 4 mps 735 mmHg 91%
23:00 +8°C° 0.7 mm 4 mps 735 mmHg 90%

24 October, Saturday

Time Temperature Precipitation Wind Pressure Humidity
00:00 +8°C° 0 mm 5 mps 735 mmHg 90%
01:00 +8°C° 0 mm 5 mps 735 mmHg 89%
02:00 +7°C° 0 mm 5 mps 735 mmHg 88%
03:00 +7°C° 0 mm 5 mps 736 mmHg 88%
04:00 +7°C° 0 mm 5 mps 736 mmHg 88%
05:00 +8°C° 0 mm 5 mps 736 mmHg 88%
06:00 +7°C° 0.1 mm 5 mps 737 mmHg 86%
07:00 +7°C° 0.1 mm 5 mps 737 mmHg 84%
08:00 +7°C° 0.1 mm 5 mps 738 mmHg 82%
09:00 +7°C° 0 mm 5 mps 738 mmHg 80%
10:00 +7°C° 0 mm 5 mps 739 mmHg 77%
11:00 +7°C° 0 mm 5 mps 740 mmHg 74%
12:00 +7°C° 0 mm 5 mps 740 mmHg 75%
13:00 +6°C° 0 mm 5 mps 740 mmHg 75%
14:00 +6°C° 0 mm 4 mps 740 mmHg 75%
15:00 +6°C° 0 mm 4 mps 741 mmHg 77%
16:00 +5°C° 0 mm 3 mps 741 mmHg 79%
17:00 +6°C° 0 mm 2 mps 741 mmHg 81%
18:00 +6°C° 0 mm 2 mps 741 mmHg 82%
19:00 +6°C° 0 mm 1 mps 742 mmHg 84%
20:00 +6°C° 0 mm 1 mps 742 mmHg 85%
21:00 +6°C° 0 mm 1 mps 742 mmHg 85%
22:00 +6°C° 0 mm 1 mps 742 mmHg 85%
23:00 +5°C° 0 mm 0 mps 742 mmHg 85%

25 October, Sunday

Time Temperature Precipitation Wind Pressure Humidity
00:00 +6°C° 0 mm 1 mps 742 mmHg 85%
01:00 +5°C° 0 mm 1 mps 742 mmHg 85%
02:00 +5°C° 0 mm 1 mps 742 mmHg 86%
03:00 +4°C° 0 mm 2 mps 742 mmHg 87%
04:00 +4°C° 0 mm 2 mps 742 mmHg 88%
05:00 +4°C° 0 mm 2 mps 742 mmHg 89%
06:00 +4°C° 0 mm 2 mps 742 mmHg 88%
07:00 +4°C° 0 mm 2 mps 742 mmHg 88%
08:00 +4°C° 0 mm 2 mps 742 mmHg 88%
09:00 +5°C° 0 mm 2 mps 742 mmHg 87%
10:00 +5°C° 0 mm 2 mps 742 mmHg 86%
11:00 +5°C° 0 mm 2 mps 743 mmHg 84%
12:00 +5°C° 0 mm 2 mps 743 mmHg 85%
13:00 +5°C° 0 mm 2 mps 743 mmHg 85%
14:00 +5°C° 0 mm 2 mps 743 mmHg 85%
15:00 +5°C° 0 mm 2 mps 743 mmHg 86%
16:00 +5°C° 0 mm 2 mps 743 mmHg 87%
17:00 +4°C° 0 mm 2 mps 743 mmHg 88%
18:00 +4°C° 0 mm 2 mps 744 mmHg 89%
19:00 +3°C° 0 mm 2 mps 744 mmHg 91%
20:00 +2°C° 0 mm 2 mps 744 mmHg 92%
21:00 +2°C° 0 mm 2 mps 745 mmHg 91%
22:00 0°C° 0 mm 3 mps 745 mmHg 91%
23:00 0°C° 0 mm 3 mps 745 mmHg 90%

26 October, Monday

Time Temperature Precipitation Wind Pressure Humidity
00:00 0°C° 0 mm 3 mps 746 mmHg 90%
01:00 -1°C° 0 mm 3 mps 746 mmHg 89%
02:00 -1°C° 0 mm 3 mps 746 mmHg 89%
03:00 -1°C° 0 mm 3 mps 747 mmHg 89%
04:00 -1°C° 0 mm 2 mps 747 mmHg 89%
05:00 -1°C° 0 mm 2 mps 748 mmHg 90%
06:00 -1°C° 0 mm 2 mps 748 mmHg 88%
07:00 +1°C° 0 mm 2 mps 749 mmHg 86%
08:00 +1°C° 0 mm 2 mps 749 mmHg 85%
09:00 +2°C° 0 mm 2 mps 750 mmHg 82%
10:00 +4°C° 0 mm 2 mps 750 mmHg 79%
11:00 +5°C° 0 mm 2 mps 751 mmHg 77%
12:00 +5°C° 0 mm 2 mps 751 mmHg 77%
13:00 +5°C° 0 mm 2 mps 751 mmHg 76%
14:00 +6°C° 0 mm 2 mps 751 mmHg 76%
15:00 +4°C° 0 mm 2 mps 752 mmHg 81%
16:00 +3°C° 0 mm 2 mps 752 mmHg 85%
17:00 +2°C° 0 mm 2 mps 752 mmHg 90%
18:00 +3°C° 0 mm 1 mps 753 mmHg 90%
19:00 +3°C° 0 mm 1 mps 753 mmHg 90%
20:00 +3°C° 0 mm 1 mps 753 mmHg 90%
21:00 +3°C° 0 mm 1 mps 754 mmHg 90%
22:00 +1°C° 0 mm 2 mps 754 mmHg 90%
23:00 +1°C° 0 mm 2 mps 754 mmHg 90%

27 October, Tuesday

Time Temperature Precipitation Wind Pressure Humidity
00:00 +1°C° 0 mm 2 mps 755 mmHg 91%
01:00 +1°C° 0 mm 2 mps 755 mmHg 91%
02:00 +1°C° 0 mm 2 mps 755 mmHg 92%
03:00 +1°C° 0 mm 2 mps 755 mmHg 93%
04:00 +1°C° 0 mm 2 mps 755 mmHg 93%
05:00 +1°C° 0 mm 2 mps 756 mmHg 94%
06:00 +2°C° 0 mm 2 mps 756 mmHg 94%
07:00 +2°C° 0 mm 2 mps 756 mmHg 94%
08:00 +2°C° 0 mm 2 mps 756 mmHg 93%
09:00 +4°C° 0 mm 2 mps 756 mmHg 88%
10:00 +5°C° 0 mm 2 mps 756 mmHg 84%
11:00 +5°C° 0 mm 3 mps 756 mmHg 79%
12:00 +5°C° 0 mm 3 mps 756 mmHg 79%
13:00 +7°C° 0 mm 3 mps 756 mmHg 78%
14:00 +7°C° 0 mm 3 mps 756 mmHg 77%
15:00 +5°C° 0 mm 3 mps 756 mmHg 82%
16:00 +4°C° 0 mm 3 mps 755 mmHg 87%
17:00 +4°C° 0 mm 3 mps 755 mmHg 91%
18:00 +3°C° 0 mm 4 mps 755 mmHg 91%
19:00 +3°C° 0 mm 4 mps 755 mmHg 90%
20:00 +3°C° 0 mm 4 mps 755 mmHg 90%
21:00 +3°C° 0 mm 4 mps 755 mmHg 89%
22:00 +3°C° 0 mm 4 mps 755 mmHg 88%
23:00 +1°C° 0 mm 4 mps 754 mmHg 87%
Show more